www.pogodaiklimat.ru

Погода и климат >> Архив погоды >> Россия >> Магаданская область >> Талая


ПОГОДА в Талае

  • Прогноз погоды в Талае
  • Монитор погоды в Талае
  • Климат города

АРХИВ ПОГОДЫ в Талае

Время (UTC), дата Ветер
(напр.,м/с)
 
Видим.   Явления Облачность Т
(С)
Тd
(С)
f
(%)
Тe
(С)
Тes
(С)
Комфортность P
(гПа)
Po
(гПа)
Тmin
(С)
Tmax
(С)
R
(мм)
R24
(мм)
S
(см)
06 9.12 штиль 0 50 км {снег} 10/0
[Ac trans Cs]
-27.4 -30.5 75 -27 -27 1022.6 927.6
09 9.12 штиль 0 10 км слабый снег 10/0
[As op]
-26.3 -29.2 76 -26 -26 1022.7 928.1 -23.8 0.3
12 9.12 В 1 10 км слабый снег 10/0
[As op]
-24.2 -27.4 75 -28 -28 1021.9 928.1
15 9.12 СВ 1 10 км слабый снег 10/0
[Ac trans Cs]
-23.9 -27.1 75 -27 -27 1021.8 928.1
18 9.12 штиль 0 50 км {снег} 10/0
[Ac trans Cs]
-25.2 -28.1 77 -25 -25 1022.7 928.4
21 9.12 штиль 0 50 км 8/0
[Ac trans Ci fib]
-29.5 -32.7 74 -30 -30 1024.8 928.8 -29.5 0.4 65
00 10.12 штиль 0 50 км 10/0
[Cs]
-29.5 -33.0 72 -30 -29 1024.8 928.8 -31.7
03 10.12 штиль 0 50 км 9/0
[Ac lent Ci fib]
-27.6 -30.7 75 -28 -28 1023.3 928.1
06 10.12 штиль 0 10 км слабый снег 10/0
[Cs]
-30.8 -34.1 73 -31 -31 опасность
обморожения
1024.7 928.2
09 10.12 штиль 0 10 км слабый снег 10/0
[Ac trans Cs]
-33.1 -36.8 69 -33 -33 опасность
обморожения
1025.5 928.0 -27.6 0.2
12 10.12 штиль 0 10 км слабый снег 10/0
[Ac trans Cs]
-31.9 -35.3 72 -32 -32 опасность
обморожения
1025.3 928.3
15 10.12 штиль 0 10 км слабый снег 10/0
[Cs]
-32.4 -35.9 71 -32 -32 опасность
обморожения
1025.5 928.3
18 10.12 штиль 0 10 км слабый снег 10/0
[Ac trans Cs]
-31.3 -34.8 71 -31 -31 опасность
обморожения
1025.3 928.6
21 10.12 штиль 0 10 км слабый снег 10/0
[Ac trans Cs]
-32.8 -36.4 70 -33 -33 опасность
обморожения
1026.2 928.8 -35.3 0.2 64
00 11.12 штиль 0 50 км туман поземный {снег} 10/0
[Ac trans Cs]
-32.7 -36.4 69 -33 -33 опасность
обморожения
1026.3 928.9
03 11.12 штиль 0 50 км туман поземный 10/0
[Ac As Cs]
-31.7 -35.2 71 -32 -32 опасность
обморожения
1025.1 928.2
06 11.12 штиль 0 10 км слабый снег 10/0
[Ac trans Cs]
-33.4 -37.2 68 -33 -33 опасность
обморожения
1025.5 927.9
09 11.12 штиль 0 10 км слабый снег 10/0
[Cs]
-33.5 -37.3 68 -34 -34 опасность
обморожения
1025.6 928.0 -31.2 0.3
12 11.12 штиль 0 10 км слабый снег 10/0
[Cs]
-31.1 -34.6 71 -31 -31 опасность
обморожения
1024.0 927.5
15 11.12 штиль 0 10 км слабый снег 10/0
[Cs]
-31.9 -35.4 71 -32 -32 опасность
обморожения
1024.5 927.6
18 11.12 штиль 0 10 км слабый снег 10/0
[Cs]
-34.4 -38.1 69 -34 -34 опасность
обморожения
1025.5 927.6
21 11.12 штиль 0 10 км слабый снег 10/0
[Cs]
-35.5 -39.5 67 -36 -36 опасность
обморожения
1026.1 927.7 -37.5 0.2 64
00 12.12 штиль 0 50 км {снег} 6/0
[Ci fib]
-36.8 -40.8 66 -37 -37 опасность
обморожения
1027.0 928.0 -38.4
03 12.12 штиль 0 50 км 3/0
[Ci fib]
-35.2 -39.3 66 -35 -35 опасность
обморожения
1025.7 927.4
06 12.12 штиль 0 50 км туман поземный ясно -38.3 -42.4 65 -38 -38 опасность
обморожения
1027.5 927.8
09 12.12 штиль 0 50 км ледяные иглы {снег} ясно -40.5 -45.1 61 -41 -41 опасность
обморожения
1028.4 927.7 -34.5 0.0
12 12.12 штиль 0 50 км ледяные иглы {снег} ясно -40.2 -44.6 63 -40 -40 опасность
обморожения
1028.1 927.6
15 12.12 штиль 0 50 км ледяные иглы {снег} ясно -41.6 -46.3 60 -42 -42 опасность
обморожения
1027.9 926.9
18 12.12 штиль 0 50 км ледяные иглы {снег} ясно -43.4 -48.4 58 -43 -43 опасность
обморожения
1028.2 926.4
21 12.12 штиль 0 50 км ледяные иглы {снег} ясно -42.2 -46.9 60 -42 -42 опасность
обморожения
1027.2 926.0 -43.8 64
00 13.12 штиль 0 50 км ледяные иглы {снег} ясно -42.7 -47.5 59 -43 -43 опасность
обморожения
1027.0 925.6 -44.1
03 13.12 штиль 0 50 км ледяные иглы {снег} 1/0
[Ci fib]
-37.9 -42.2 64 -38 -38 опасность
обморожения
1023.5 924.4
06 13.12 штиль 0 50 км ледяные иглы {снег} ясно -40.4 -44.9 62 -40 -40 опасность
обморожения
1024.1 923.9
09 13.12 штиль 0 50 км ледяные иглы {снег} ясно -41.8 -46.3 61 -42 -42 опасность
обморожения
1024.7 923.9 -37.9
12 13.12 штиль 0 50 км ледяные иглы {снег} ясно -43.8 -48.7 58 -44 -44 опасность
обморожения
1025.5 923.7
15 13.12 штиль 0 50 км ледяные иглы {снег} ясно -44.5 -49.6 56 -45 -45 опасность
обморожения
1025.3 923.3
18 13.12 штиль 0 50 км ледяные иглы {снег} ясно -44.7 -49.7 57 -45 -45 опасность
обморожения
1025.4 923.3
21 13.12 штиль 0 50 км ледяные иглы {снег} ясно -44.2 -49.2 57 -44 -44 опасность
обморожения
1024.8 922.9 -45.3 64
00 14.12 штиль 0 20 км ледяные иглы {снег} ясно -44.8 -49.9 56 -45 -45 опасность
обморожения
1025.0 922.9 -45.4
03 14.12 штиль 0 10 км ледяные иглы {снег} 4/0
[Ci sp]
-41.0 -45.8 60 -41 -41 опасность
обморожения
1021.8 921.6
06 14.12 штиль 0 4000 м ледяные иглы {снег} ясно -43.4 -48.4 58 -43 -43 опасность
обморожения
1022.2 921.0
09 14.12 штиль 0 20 км ледяные иглы {снег} ясно -43.8 -48.8 57 -44 -44 опасность
обморожения
1022.1 920.8 -40.5
12 14.12 штиль 0 50 км ледяные иглы {снег} 4/0
[Ci fib]
-44.7 -49.7 57 -45 -45 опасность
обморожения
1022.4 920.6
15 14.12 штиль 0 50 км ледяные иглы {снег} 6/0
[Ci fib]
-45.2 -50.4 56 -45 -45 опасность
обморожения
1022.1 920.1
18 14.12 штиль 0 50 км ледяные иглы {снег} ясно -43.8 -48.7 58 -44 -44 опасность
обморожения
1021.3 920.0
21 14.12 штиль 0 50 км ледяные иглы {снег} 10/0
[Cs]
-43.5 -48.4 58 -44 -44 опасность
обморожения
1021.2 920.0 -45.5 64
00 15.12 штиль 0 10 км ледяные иглы {снег} 10/0
[Cs]
-42.0 -46.9 59 -42 -42 опасность
обморожения
1020.4 919.9
03 15.12 штиль 0 50 км ледяные иглы {снег} 10/0
[Cc]
-39.4 -44.0 61 -39 -39 опасность
обморожения
1018.7 919.4
06 15.12 штиль 0 50 км ледяные иглы {снег} 10/0
[Cc]
-38.5 -42.9 63 -39 -39 опасность
обморожения
1019.0 920.1
09 15.12 штиль 0 50 км ледяные иглы {снег} ясно -40.5 -45.2 60 -41 -41 опасность
обморожения
1020.2 920.4 -38.4
12 15.12 штиль 0 50 км ледяные иглы {снег} ясно -41.3 -46.1 59 -41 -41 опасность
обморожения
1020.1 920.0
15 15.12 штиль 0 50 км ледяные иглы {снег} 10/0
[Cs]
-39.5 -44.1 61 -40 -40 опасность
обморожения
1019.0 919.7
18 15.12 штиль 0 50 км ледяные иглы {снег} 10/0
[Cs]
-35.5 -39.7 65 -36 -36 опасность
обморожения
1017.0 919.4
21 15.12 штиль 0 50 км ледяные иглы {снег} ясно -34.4 -38.3 68 -34 -34 опасность
обморожения
1016.6 919.5 -41.3 64
00 16.12 штиль 0 20 км слабый снег 10/3 1000 м
[Sc Ac trans Cs]
-31.2 -34.7 71 -31 -31 опасность
обморожения
1015.3 919.6

 

Местоположение метеостанции Талая (Магаданская область, Россия): широта 61.13 долгота 152.30 высота над уровнем моря 708 м.

В архиве по умолчанию представлена погода в Талае за последнюю неделю. Архивные данные за месяц целиком и за предыдущие месяцы, начиная с января 2011 года, Вы можете получить, выбрав интересующий диапазон дат из раскрывающегося списка и нажав кнопку "Ввод!".


*Определитесь, кто Вы:
робот инопланетянин человек

Внимание! Время в таблицах - всемирное. Для получения местного времени необходимо прибавить поправку, которая в Талае равна 11 ч.

Смотрите также архив погоды в соседних городах и на ближайших метеорологических станциях:

Погода в Мадауне (Магаданская область, Россия) (105 км)
Погода в Палатке (Магаданская область, Россия) (138 км)
Погода в Усть-Бохапче (Магаданская область, Россия) (140 км)
Погода в Усть-Омчуге (Магаданская область, Россия) (145 км)
Погода в Среднекане (Магаданская область, Россия) (147 км)
Погода в Озере Джека Лондона (Магаданская область, Россия) (182 км)
Погода в Оле (Магаданская область, Россия) (185 км)
Погода в Шелихова (Магаданская область, Россия) (195 км)
Погода в Брохово (Магаданская область, Россия) (195 км)
Погода в Магадане (Магаданская область, Россия) (197 км)

Пояснения к столбцам:

Ветер - указаны скорость ветра в м/с - средняя за 10 мин, порывы в срок и между сроками (в фигурных скобках) и направление, откуда дует ветер: С - северный, СВ - северо-восточный, В - восточный, ЮВ - юго-восточный, Ю - южный, ЮЗ - юго-западный, З - западный, СЗ - северо-западный.
Видимость - горизонтальная дальность видимости в метрах или километрах. При видимости от 1 до 10 км при отсутствии осадков обычно наблюдается дымка, при ухудшении видимости до 1 км и менее - туман. В сухую погоду видимость может ухудшаться дымом, пылью или мглою.
Явления - указаны атмосферные явления, наблюдавшиеся в срок или в последний час перед сроком; фигурными скобками обозначены явления, наблюдавшиеся между сроками (за 1-3 часа до срока); квадратными скобками обозначены град или гололедные отложения с указанием их диаметра в мм.
Облачность - указаны через наклонную черту общая и нижняя облачность в баллах и высота нижней границы облаков в метрах; квадратными скобками обозначены формы облаков: Ci - перистые, Cs - перисто-слоистые, Cc - перисто-кучевые, Ac - высококучевые, As - высокослоистые, Sc - слоисто-кучевые, Ns - слоисто-дождевые, Cu - кучевые, Cb - кучево-дождевые. Подробнее классификацию облаков см. в Атласе облаков (PDF).
T - Температура воздуха - температура, измеренная на высоте 2 м над землей.
Td - Температура точки росы - температура, при понижении до которой содержащийся в воздухе водяной пар достигнет насыщения.
f - Относительная влажность воздуха - влажноcть воздуха, измеренная на высоте 2 м над землей.
Te - Эффективная температура - температура, которую ощущает одетый по сезону человек в тени. Характеристика душности погоды. При расчете учитывается влияние влажности воздуха и скорости ветра на теплоощущения человека.
Tes - Эффективная температура на солнце - температура, которую ощущает человек, с поправкой на солнечный нагрев. Характеристика знойности погоды. Зависит от высоты солнца над горизонтом, облачности и скорости ветра. Ночью, в пасмурную погоду, а также при ветре 12 м/с и более поправка равна нулю.
P - Атмосферное давление - приведенное к уровню моря атмосферное давление.
Po - Атмосферное давление - измеренное на уровне метеостанции атмосферное давление.
Tmin - Минимальная температура - минимум температуры воздуха на высоте 2 м над землей.
Tmax - Максимальная температура - максимум температуры воздуха на высоте 2 м над землей.
R - Количество осадков - Количество выпавших осадков за период времени, мм. При наведении курсора мыши на число - период времени, за который выпало указанное количество осадков.
R24 - Количество осадков - Количество выпавших осадков за 24 часа, мм.
S - Снежный покров - Высота снежного покрова, см. При наведении курсора мыши на число - состояние снежного покрова и степень покрытия местности в баллах.